When you browse on this site, cookies collect data to enhance your experience and personalize the content and advertising you see.
Visit our Privacy Policy to learn more. By continuing to use the site, you agree to this use of cookies and data.
  • In Latvia
  • List of Countries
  • For 7 days
  • Water Temperature
  • Weather Map
  • Weather Widgets
  • user-avatar
    Login

    Hourly Weather Bregenz

    Today, 4 June, Thursday

    Time Temperature Precipitation Wind Pressure Humidity
    00:00 +7°C° 0.1 mm 2 mps 637 mmHg 87%
    01:00 +8°C° 0 mm 1 mps 637 mmHg 87%
    02:00 +8°C° 0 mm 1 mps 636 mmHg 88%
    03:00 +8°C° 0 mm 1 mps 636 mmHg 89%
    04:00 +8°C° 0 mm 1 mps 635 mmHg 89%
    05:00 +8°C° 0 mm 1 mps 635 mmHg 88%
    06:00 +9°C° 0 mm 1 mps 635 mmHg 87%
    07:00 +10°C° 0 mm 1 mps 636 mmHg 84%
    08:00 +10°C° 0.6 mm 1 mps 635 mmHg 86%
    09:00 +10°C° 0.6 mm 1 mps 635 mmHg 88%
    10:00 +10°C° 0.6 mm 1 mps 635 mmHg 90%
    11:00 +10°C° 0.6 mm 1 mps 635 mmHg 90%
    12:00 +9°C° 0.6 mm 2 mps 635 mmHg 91%
    13:00 +9°C° 0.6 mm 2 mps 635 mmHg 92%
    14:00 +8°C° 1 mm 2 mps 634 mmHg 92%
    15:00 +8°C° 1 mm 2 mps 634 mmHg 92%
    16:00 +9°C° 1 mm 1 mps 634 mmHg 92%
    17:00 +8°C° 2 mm 1 mps 634 mmHg 93%
    18:00 +8°C° 2 mm 1 mps 633 mmHg 95%
    19:00 +8°C° 2 mm 1 mps 633 mmHg 96%
    20:00 +7°C° 1.7 mm 1 mps 633 mmHg 95%
    21:00 +7°C° 1.7 mm 1 mps 634 mmHg 95%
    22:00 +6°C° 1.7 mm 2 mps 634 mmHg 94%
    23:00 +7°C° 0.2 mm 1 mps 634 mmHg 93%

    Tomorrow, 5 June, Friday

    Time Temperature Precipitation Wind Pressure Humidity
    00:00 +7°C° 0.2 mm 1 mps 634 mmHg 93%
    01:00 +7°C° 0.2 mm 1 mps 634 mmHg 92%
    02:00 +6°C° 0.8 mm 1 mps 634 mmHg 94%
    03:00 +6°C° 0.8 mm 1 mps 634 mmHg 95%
    04:00 +6°C° 0.8 mm 1 mps 634 mmHg 97%
    05:00 +6°C° 1.2 mm 1 mps 635 mmHg 96%
    06:00 +6°C° 1.2 mm 1 mps 635 mmHg 96%
    07:00 +6°C° 1.2 mm 1 mps 635 mmHg 95%
    08:00 +7°C° 0.4 mm 1 mps 635 mmHg 92%
    09:00 +7°C° 0.4 mm 2 mps 636 mmHg 88%
    10:00 +8°C° 0.4 mm 2 mps 636 mmHg 85%
    11:00 +8°C° 0.4 mm 2 mps 636 mmHg 84%
    12:00 +8°C° 0.4 mm 2 mps 636 mmHg 83%
    13:00 +8°C° 0.4 mm 3 mps 636 mmHg 82%
    14:00 +9°C° 0.2 mm 3 mps 637 mmHg 76%
    15:00 +10°C° 0.2 mm 4 mps 637 mmHg 70%
    16:00 +11°C° 0.2 mm 4 mps 638 mmHg 64%
    17:00 +10°C° 0.1 mm 4 mps 637 mmHg 68%
    18:00 +9°C° 0.1 mm 3 mps 637 mmHg 73%
    19:00 +8°C° 0.1 mm 3 mps 637 mmHg 77%
    20:00 +8°C° 0 mm 2 mps 637 mmHg 79%
    21:00 +7°C° 0 mm 2 mps 638 mmHg 81%
    22:00 +7°C° 0 mm 2 mps 638 mmHg 84%
    23:00 +7°C° 0 mm 2 mps 638 mmHg 84%

    Day after tomorrow, 6 June, Saturday

    Time Temperature Precipitation Wind Pressure Humidity
    00:00 +8°C° 0 mm 1 mps 638 mmHg 84%
    01:00 +8°C° 0 mm 1 mps 638 mmHg 84%
    02:00 +7°C° 0 mm 1 mps 638 mmHg 85%
    03:00 +6°C° 0 mm 1 mps 638 mmHg 86%
    04:00 +5°C° 0 mm 2 mps 638 mmHg 87%
    05:00 +7°C° 0 mm 1 mps 638 mmHg 83%
    06:00 +8°C° 0 mm 1 mps 639 mmHg 79%
    07:00 +10°C° 0 mm 1 mps 639 mmHg 76%
    08:00 +10°C° 0 mm 2 mps 640 mmHg 71%
    09:00 +12°C° 0 mm 2 mps 640 mmHg 67%
    10:00 +13°C° 0 mm 3 mps 641 mmHg 63%
    11:00 +13°C° 0.2 mm 3 mps 641 mmHg 64%
    12:00 +13°C° 0.2 mm 3 mps 640 mmHg 66%
    13:00 +13°C° 0.2 mm 3 mps 640 mmHg 67%
    14:00 +14°C° 0.4 mm 2 mps 640 mmHg 73%
    15:00 +13°C° 0.4 mm 2 mps 640 mmHg 78%
    16:00 +12°C° 0.4 mm 2 mps 640 mmHg 84%
    17:00 +10°C° 1.5 mm 2 mps 640 mmHg 87%
    18:00 +10°C° 1.5 mm 1 mps 640 mmHg 90%
    19:00 +9°C° 1.5 mm 1 mps 639 mmHg 93%
    20:00 +9°C° 2 mm 1 mps 640 mmHg 95%
    21:00 +9°C° 2 mm 1 mps 640 mmHg 96%
    22:00 +8°C° 2 mm 1 mps 640 mmHg 97%
    23:00 +8°C° 1.2 mm 1 mps 640 mmHg 97%

    7 June, Sunday

    Time Temperature Precipitation Wind Pressure Humidity
    00:00 +8°C° 1.2 mm 1 mps 640 mmHg 97%
    01:00 +8°C° 1.2 mm 1 mps 640 mmHg 98%
    02:00 +7°C° 1 mm 1 mps 640 mmHg 98%
    03:00 +7°C° 1 mm 1 mps 640 mmHg 98%
    04:00 +7°C° 1 mm 1 mps 640 mmHg 98%
    05:00 +6°C° 1.1 mm 1 mps 640 mmHg 98%
    06:00 +6°C° 1.1 mm 1 mps 640 mmHg 97%
    07:00 +6°C° 1.1 mm 1 mps 640 mmHg 97%
    08:00 +6°C° 0.6 mm 1 mps 641 mmHg 96%
    09:00 +6°C° 0.6 mm 1 mps 641 mmHg 95%
    10:00 +6°C° 0.6 mm 1 mps 641 mmHg 93%
    11:00 +7°C° 0.3 mm 1 mps 641 mmHg 90%
    12:00 +8°C° 0.3 mm 1 mps 641 mmHg 87%
    13:00 +9°C° 0.3 mm 1 mps 641 mmHg 83%
    14:00 +9°C° 0.2 mm 1 mps 641 mmHg 84%
    15:00 +9°C° 0.2 mm 1 mps 641 mmHg 84%
    16:00 +9°C° 0.2 mm 1 mps 641 mmHg 85%
    17:00 +8°C° 0.6 mm 1 mps 641 mmHg 88%
    18:00 +8°C° 0.6 mm 1 mps 641 mmHg 91%
    19:00 +7°C° 0.6 mm 1 mps 641 mmHg 94%
    20:00 +6°C° 0.5 mm 0 mps 641 mmHg 95%
    21:00 +6°C° 0.5 mm 0 mps 641 mmHg 95%
    22:00 +6°C° 0.5 mm 0 mps 641 mmHg 95%
    23:00 +6°C° 0.5 mm 1 mps 641 mmHg 96%

    8 June, Monday

    Time Temperature Precipitation Wind Pressure Humidity
    00:00 +6°C° 0.5 mm 1 mps 641 mmHg 97%
    01:00 +5°C° 0.5 mm 2 mps 641 mmHg 97%
    02:00 +5°C° 2.4 mm 2 mps 641 mmHg 97%
    03:00 +5°C° 2.4 mm 1 mps 641 mmHg 97%
    04:00 +5°C° 2.4 mm 1 mps 640 mmHg 97%
    05:00 +5°C° 0.9 mm 1 mps 641 mmHg 97%
    06:00 +5°C° 0.9 mm 1 mps 641 mmHg 96%
    07:00 +4°C° 0.9 mm 0 mps 641 mmHg 96%
    08:00 +4°C° 0.2 mm 0 mps 641 mmHg 95%
    09:00 +6°C° 0.2 mm 1 mps 641 mmHg 94%
    10:00 +6°C° 0.2 mm 1 mps 641 mmHg 93%
    11:00 +6°C° 0.1 mm 1 mps 642 mmHg 91%
    12:00 +7°C° 0.1 mm 1 mps 642 mmHg 89%
    13:00 +7°C° 0.1 mm 1 mps 642 mmHg 87%
    14:00 +8°C° 0 mm 1 mps 642 mmHg 84%
    15:00 +9°C° 0 mm 1 mps 642 mmHg 80%
    16:00 +10°C° 0 mm 1 mps 642 mmHg 77%
    17:00 +9°C° 0 mm 1 mps 642 mmHg 78%
    18:00 +9°C° 0 mm 1 mps 642 mmHg 80%
    19:00 +9°C° 0 mm 1 mps 642 mmHg 81%
    20:00 +8°C° 0 mm 1 mps 642 mmHg 84%
    21:00 +7°C° 0 mm 1 mps 642 mmHg 86%
    22:00 +6°C° 0 mm 1 mps 642 mmHg 89%
    23:00 +5°C° 0 mm 1 mps 642 mmHg 89%

    9 June, Tuesday

    Time Temperature Precipitation Wind Pressure Humidity
    00:00 +5°C° 0 mm 1 mps 642 mmHg 89%
    01:00 +5°C° 0 mm 1 mps 642 mmHg 89%
    02:00 +4°C° 0 mm 1 mps 642 mmHg 90%
    03:00 +4°C° 0 mm 1 mps 642 mmHg 90%
    04:00 +4°C° 0 mm 1 mps 642 mmHg 91%
    05:00 +5°C° 0 mm 1 mps 643 mmHg 87%
    06:00 +6°C° 0 mm 0 mps 644 mmHg 83%
    07:00 +7°C° 0 mm 0 mps 644 mmHg 79%
    08:00 +8°C° 0.1 mm 0 mps 645 mmHg 75%
    09:00 +11°C° 0.1 mm 1 mps 645 mmHg 72%
    10:00 +12°C° 0.1 mm 1 mps 645 mmHg 68%
    11:00 +13°C° 0.3 mm 1 mps 645 mmHg 68%
    12:00 +13°C° 0.3 mm 1 mps 645 mmHg 68%
    13:00 +14°C° 0.3 mm 1 mps 645 mmHg 68%
    14:00 +14°C° 0.7 mm 1 mps 645 mmHg 69%
    15:00 +14°C° 0.7 mm 1 mps 645 mmHg 70%
    16:00 +14°C° 0.7 mm 1 mps 645 mmHg 72%
    17:00 +13°C° 0.7 mm 1 mps 645 mmHg 78%
    18:00 +12°C° 0.7 mm 1 mps 645 mmHg 84%
    19:00 +11°C° 0.7 mm 1 mps 645 mmHg 89%
    20:00 +10°C° 0.6 mm 1 mps 645 mmHg 91%
    21:00 +9°C° 0.6 mm 1 mps 645 mmHg 92%
    22:00 +8°C° 0.6 mm 1 mps 646 mmHg 93%
    23:00 +8°C° 0.1 mm 1 mps 646 mmHg 92%
    Show more